When you browse on this site, cookies collect data to enhance your experience and personalize the content and advertising you see.
Visit our Privacy Policy to learn more. By continuing to use the site, you agree to this use of cookies and data.
  • En España
  • Lista de países
  • Para 7 días
  • Temperatura del agua
  • Mapa Satelital
  • El tiempo en el mapa
  • Informadores
  • user-avatar
    Iniciar sesión

    Tiempo cada hora Varna

    Hoy, 20 Enero, Domingo

    Tiempo Temperatura Precipitaciones Viento Presión Humedad
    00:00 +2°C° 0.3 mm 5 mps 751 mmHg 92%
    01:00 +2°C° 0.3 mm 5 mps 750 mmHg 92%
    02:00 +2°C° 0 mm 5 mps 750 mmHg 92%
    03:00 +2°C° 0.1 mm 5 mps 750 mmHg 93%
    04:00 +2°C° 0.1 mm 5 mps 749 mmHg 94%
    05:00 +3°C° 0.1 mm 4 mps 749 mmHg 94%
    06:00 +4°C° 0.1 mm 4 mps 749 mmHg 95%
    07:00 +3°C° 0.1 mm 5 mps 749 mmHg 96%
    08:00 +3°C° 0.1 mm 5 mps 748 mmHg 96%
    09:00 +5°C° 0.1 mm 5 mps 748 mmHg 96%
    10:00 +5°C° 0.1 mm 5 mps 748 mmHg 96%
    11:00 +6°C° 0.1 mm 5 mps 748 mmHg 96%
    12:00 +6°C° 0 mm 4 mps 747 mmHg 94%
    13:00 +7°C° 0 mm 4 mps 747 mmHg 92%
    14:00 +8°C° 0 mm 4 mps 746 mmHg 90%
    15:00 +7°C° 0.1 mm 4 mps 746 mmHg 91%
    16:00 +8°C° 0.1 mm 3 mps 746 mmHg 93%
    17:00 +8°C° 0.1 mm 3 mps 745 mmHg 95%
    18:00 +8°C° 0 mm 3 mps 745 mmHg 95%
    19:00 +7°C° 0 mm 3 mps 745 mmHg 95%
    20:00 +7°C° 0 mm 3 mps 745 mmHg 95%
    21:00 +7°C° 0.2 mm 3 mps 745 mmHg 95%
    22:00 +7°C° 0.2 mm 3 mps 745 mmHg 95%
    23:00 +7°C° 0.2 mm 3 mps 745 mmHg 95%

    Mañana, 21 Enero, Lunes

    Tiempo Temperatura Precipitaciones Viento Presión Humedad
    00:00 +7°C° 0 mm 3 mps 745 mmHg 95%
    01:00 +5°C° 0 mm 3 mps 745 mmHg 94%
    02:00 +5°C° 0 mm 3 mps 745 mmHg 93%
    03:00 +4°C° 0 mm 4 mps 745 mmHg 92%
    04:00 +2°C° 0 mm 5 mps 745 mmHg 91%
    05:00 +1°C° 0 mm 6 mps 745 mmHg 90%
    06:00 +1°C° 0 mm 6 mps 746 mmHg 90%
    07:00 +1°C° 0 mm 6 mps 746 mmHg 89%
    08:00 -1°C° 0 mm 6 mps 747 mmHg 89%
    09:00 +1°C° 0 mm 6 mps 747 mmHg 85%
    10:00 +1°C° 0 mm 6 mps 748 mmHg 82%
    11:00 +2°C° 0 mm 6 mps 748 mmHg 79%
    12:00 +2°C° 0 mm 5 mps 748 mmHg 77%
    13:00 +3°C° 0 mm 5 mps 748 mmHg 75%
    14:00 +3°C° 0 mm 5 mps 748 mmHg 73%
    15:00 +3°C° 0 mm 4 mps 749 mmHg 74%
    16:00 +3°C° 0 mm 4 mps 749 mmHg 75%
    17:00 +1°C° 0 mm 4 mps 749 mmHg 77%
    18:00 0°C° 0 mm 4 mps 750 mmHg 78%
    19:00 -1°C° 0 mm 4 mps 750 mmHg 80%
    20:00 0°C° 0 mm 3 mps 750 mmHg 82%
    21:00 0°C° 0 mm 3 mps 751 mmHg 83%
    22:00 -1°C° 0 mm 3 mps 751 mmHg 83%
    23:00 -1°C° 0 mm 3 mps 751 mmHg 84%

    Pasado mañana, 22 Enero, Martes

    Tiempo Temperatura Precipitaciones Viento Presión Humedad
    00:00 -1°C° 0 mm 3 mps 751 mmHg 85%
    01:00 -1°C° 0 mm 2 mps 751 mmHg 86%
    02:00 -1°C° 0 mm 2 mps 751 mmHg 87%
    03:00 -1°C° 0 mm 2 mps 750 mmHg 88%
    04:00 -1°C° 0 mm 2 mps 750 mmHg 89%
    05:00 -1°C° 0 mm 2 mps 750 mmHg 91%
    06:00 +1°C° 0 mm 2 mps 750 mmHg 90%
    07:00 +1°C° 0 mm 2 mps 750 mmHg 89%
    08:00 0°C° 0 mm 3 mps 750 mmHg 88%
    09:00 +1°C° 0 mm 3 mps 750 mmHg 85%
    10:00 +2°C° 0 mm 3 mps 750 mmHg 82%
    11:00 +3°C° 0 mm 4 mps 750 mmHg 79%
    12:00 +3°C° 0 mm 4 mps 749 mmHg 80%
    13:00 +3°C° 0 mm 4 mps 748 mmHg 80%
    14:00 +3°C° 0 mm 4 mps 748 mmHg 80%
    15:00 +3°C° 0 mm 4 mps 747 mmHg 82%
    16:00 +3°C° 0 mm 4 mps 747 mmHg 84%
    17:00 +3°C° 0 mm 4 mps 746 mmHg 87%
    18:00 +3°C° 0.1 mm 4 mps 746 mmHg 87%
    19:00 +3°C° 0.1 mm 4 mps 746 mmHg 87%
    20:00 +3°C° 0.1 mm 4 mps 745 mmHg 87%
    21:00 +2°C° 0.1 mm 5 mps 745 mmHg 89%
    22:00 +3°C° 0.1 mm 5 mps 745 mmHg 90%
    23:00 +3°C° 0.1 mm 6 mps 744 mmHg 92%

    23 Enero, Miércoles

    Tiempo Temperatura Precipitaciones Viento Presión Humedad
    00:00 +3°C° 0.1 mm 6 mps 744 mmHg 92%
    01:00 +3°C° 0.1 mm 6 mps 743 mmHg 92%
    02:00 +4°C° 0.1 mm 6 mps 742 mmHg 92%
    03:00 +4°C° 0.1 mm 6 mps 742 mmHg 93%
    04:00 +4°C° 0.1 mm 7 mps 741 mmHg 94%
    05:00 +4°C° 0.1 mm 7 mps 740 mmHg 95%
    06:00 +5°C° 3 mm 7 mps 740 mmHg 95%
    07:00 +5°C° 3 mm 7 mps 740 mmHg 94%
    08:00 +5°C° 3 mm 7 mps 740 mmHg 94%
    09:00 +6°C° 0.2 mm 7 mps 740 mmHg 90%
    10:00 +6°C° 0.2 mm 7 mps 739 mmHg 87%
    11:00 +8°C° 0.2 mm 7 mps 739 mmHg 83%
    12:00 +9°C° 0 mm 7 mps 739 mmHg 80%
    13:00 +10°C° 0 mm 7 mps 739 mmHg 77%
    14:00 +11°C° 0 mm 7 mps 738 mmHg 74%
    15:00 +10°C° 0 mm 7 mps 738 mmHg 76%
    16:00 +10°C° 0 mm 7 mps 738 mmHg 77%
    17:00 +9°C° 0 mm 7 mps 738 mmHg 78%
    18:00 +9°C° 0 mm 7 mps 738 mmHg 80%
    19:00 +9°C° 0 mm 7 mps 739 mmHg 82%
    20:00 +9°C° 0 mm 7 mps 739 mmHg 84%
    21:00 +8°C° 0 mm 7 mps 739 mmHg 85%
    22:00 +8°C° 0 mm 6 mps 739 mmHg 86%
    23:00 +8°C° 0 mm 6 mps 739 mmHg 87%

    24 Enero, Jueves

    Tiempo Temperatura Precipitaciones Viento Presión Humedad
    00:00 +8°C° 0 mm 6 mps 739 mmHg 89%
    01:00 +8°C° 0 mm 6 mps 739 mmHg 90%
    02:00 +7°C° 0 mm 6 mps 739 mmHg 92%
    03:00 +7°C° 0.1 mm 6 mps 739 mmHg 92%
    04:00 +7°C° 0.1 mm 6 mps 739 mmHg 93%
    05:00 +7°C° 0.1 mm 6 mps 738 mmHg 93%
    06:00 +7°C° 0.2 mm 6 mps 738 mmHg 94%
    07:00 +7°C° 0.2 mm 6 mps 738 mmHg 94%
    08:00 +7°C° 0.2 mm 5 mps 738 mmHg 95%
    09:00 +8°C° 0.1 mm 5 mps 738 mmHg 91%
    10:00 +8°C° 0.1 mm 6 mps 738 mmHg 88%
    11:00 +9°C° 0.1 mm 6 mps 738 mmHg 84%
    12:00 +9°C° 0 mm 6 mps 737 mmHg 81%
    13:00 +9°C° 0 mm 6 mps 736 mmHg 77%
    14:00 +9°C° 0 mm 6 mps 736 mmHg 74%
    15:00 +9°C° 0 mm 5 mps 735 mmHg 77%
    16:00 +8°C° 0 mm 5 mps 734 mmHg 81%
    17:00 +7°C° 0 mm 4 mps 734 mmHg 84%
    18:00 +7°C° 0 mm 4 mps 734 mmHg 86%
    19:00 +7°C° 0 mm 3 mps 734 mmHg 88%
    20:00 +7°C° 0 mm 3 mps 734 mmHg 89%
    21:00 +7°C° 0 mm 3 mps 734 mmHg 89%
    22:00 +8°C° 0 mm 3 mps 734 mmHg 89%
    23:00 +7°C° 0 mm 4 mps 734 mmHg 89%

    25 Enero, Viernes

    Tiempo Temperatura Precipitaciones Viento Presión Humedad
    00:00 +8°C° 0 mm 3 mps 733 mmHg 91%
    01:00 +7°C° 0 mm 3 mps 733 mmHg 93%
    02:00 +7°C° 0 mm 2 mps 733 mmHg 96%
    03:00 +7°C° 0 mm 3 mps 733 mmHg 95%
    04:00 +7°C° 0 mm 3 mps 733 mmHg 94%
    05:00 +7°C° 0 mm 3 mps 733 mmHg 93%
    06:00 +6°C° 0.1 mm 4 mps 733 mmHg 93%
    07:00 +6°C° 0.1 mm 4 mps 733 mmHg 93%
    08:00 +6°C° 0.1 mm 4 mps 733 mmHg 92%
    09:00 +7°C° 0.2 mm 5 mps 734 mmHg 86%
    10:00 +8°C° 0.2 mm 5 mps 734 mmHg 81%
    11:00 +9°C° 0.2 mm 5 mps 734 mmHg 75%
    12:00 +9°C° 0.3 mm 5 mps 733 mmHg 75%
    13:00 +9°C° 0.3 mm 5 mps 733 mmHg 75%
    14:00 +10°C° 0.3 mm 4 mps 733 mmHg 75%
    15:00 +10°C° 0.6 mm 4 mps 733 mmHg 79%
    16:00 +8°C° 0.6 mm 4 mps 733 mmHg 83%
    17:00 +9°C° 0.6 mm 3 mps 733 mmHg 87%
    18:00 +8°C° 0.2 mm 3 mps 733 mmHg 89%
    19:00 +8°C° 0.2 mm 3 mps 733 mmHg 91%
    20:00 +7°C° 0.2 mm 3 mps 734 mmHg 93%
    21:00 +6°C° 0.2 mm 4 mps 734 mmHg 92%
    22:00 +6°C° 0.2 mm 5 mps 734 mmHg 92%
    23:00 +5°C° 0.2 mm 6 mps 735 mmHg 91%
    Mostrar más